Wind_Speed
29 30 29 27 26 25 25 28 29 30 32 31 31 29 28 30 28 29 28 29 30 30 28 27 26 26 27 29 29 30 31 29 27 24 22 20 17 13 12 13 15 16 16 19 19
29 30 31 31 28 30 29 30 31 33 33 32 31 32 32 32 33 33 32 33 32 32 32 31 30 29 29 28 28 28 30 32 31 31 29 26 21 21 16 16 16 18 17 18 20
30 30 30 30 31 32 31 30 31 35 36 35 35 34 34 35 36 35 35 35 36 37 36 34 33 33 33 33 30 33 28 29 33 35 33 31 29 25 24 15 21 16 21 17 20
29 29 29 28 28 28 28 29 29 31 32 34 36 35 37 39 39 38 38 39 39 38 36 35 31 31 33 35 31 32 30 29 28 33 35 36 32 30 32 19 25 20 22 23 21
30 30 29 29 28 28 28 29 29 28 28 28 28 29 30 34 36 36 37 36 34 31 29 28 26 24 25 23 23 26 27 28 27 29 28 34 37 35 41 28 27 27 26 25 26
31 33 32 31 30 30 31 31 32 31 31 32 30 28 31 35 34 32 34 32 28 25 25 24 24 23 24 26 24 26 25 25 27 26 26 28 31 35 44 36 33 32 31 31 30
38 37 35 36 35 36 35 33 35 35 33 31 30 29 32 35 35 32 31 31 31 30 31 29 31 31 29 30 31 29 25 26 33 26 22 25 32 35 34 38 42 36 38 38 35
38 39 38 38 36 38 38 33 35 37 36 35 33 29 33 39 39 38 36 37 36 38 38 34 32 31 33 30 31 30 28 27 37 30 24 21 24 36 33 27 39 45 42 42 44
46 44 42 41 41 41 40 36 36 37 35 31 31 27 36 42 44 41 40 42 42 43 43 42 38 38 42 40 35 32 29 29 34 34 23 20 26 39 38 29 33 40 45 46 41
51 50 50 47 47 46 45 43 41 40 38 37 33 34 34 39 44 44 44 46 46 47 46 43 40 42 49 41 36 36 35 32 33 39 28 23 28 33 36 32 37 40 40 41 42
57 56 58 56 52 54 54 51 47 44 41 41 37 38 34 41 43 46 48 49 51 48 51 45 42 46 55 46 43 39 35 35 38 43 30 28 27 32 39 38 36 37 39 35 33
60 59 61 60 61 59 62 63 60 52 46 47 48 44 44 43 40 49 53 53 51 51 52 45 35 51 52 53 51 45 40 37 37 45 41 35 32 30 39 37 41 38 39 38 33
62 58 62 64 63 62 62 62 65 62 52 49 55 52 52 52 49 52 60 59 56 52 54 49 44 50 54 52 55 49 49 48 41 47 42 39 32 28 36 40 39 45 43 42 41
66 69 64 67 69 66 74 73 68 64 58 53 56 57 59 61 57 61 63 63 59 58 58 49 54 55 56 56 63 46 56 51 48 47 40 42 25 28 36 40 39 45 49 49 46
78 77 72 79 70 75 68 72 77 63 56 56 60 63 65 66 64 63 67 70 72 71 67 57 60 60 60 61 66 57 60 54 51 48 46 43 45 36 40 41 44 48 53 54 57
84 90 74 84 69 79 80 76 78 80 49 62 64 61 70 75 67 63 73 71 73 77 77 70 69 70 68 65 67 67 65 65 63 60 50 48 54 31 41 42 46 48 50 51 57
86 91 78 87 78 78 88 81 87 79 73 60 65 79 73 66 78 83 75 79 79 85 80 85 69 72 79 79 77 80 75 74 74 69 60 60 49 39 47 49 49 50 52 52 53
87 89 85 87 87 86 88 78 80 80 87 78 80 75 85 91 74 85 90 78 82 86 94 87 77 86 77 81 83 82 85 84 85 75 68 66 54 45 48 55 55 58 59 58 59
93 97 94 95 92 100 97 94 91 85 91 90 88 91 85 92 93 90 93 91 83 96 90 99 84 95 88 90 90 87 87 86 92 79 82 69 58 52 53 61 62 63 61 63 65
108 105 100 105 107 102 101 100 97 95 98 103 107 101 95 99 104 102 98 95 96 93 96 97 98 97 102 101 98 98 98 88 93 101 106 85 70 59 64 62 62 57 63 68 71
116 115 107 109 113 113 107 108 103 104 105 112 117 117 109 104 110 108 109 106 104 101 106 109 116 108 111 109 112 109 113 106 97 100 104 103 87 92 67 64 68 76 73 77 76
124 123 117 118 125 126 120 116 116 115 119 119 118 118 120 117 118 121 120 118 119 123 120 120 127 126 125 118 117 117 123 125 121 111 118 121 115 92 93 95 96 94 99 99 90
137 134 131 133 134 134 133 133 130 116 113 119 120 126 139 139 140 128 131 124 125 129 133 136 142 147 139 136 131 130 126 130 128 126 122 125 124 103 107 106 106 112 107 109 104
141 140 139 140 140 140 141 138 131 125 125 128 144 154 159 150 144 147 137 132 124 130 142 144 145 149 153 152 147 139 134 128 129 131 129 130 122 118 102 104 105 106 108 105 100
156 157 153 154 148 153 155 154 152 150 156 156 154 156 156 164 165 162 154 150 150 145 146 152 158 155 142 140 141 147 138 135 138 132 135 128 124 108 108 107 108 111 102 103 105
164 161 161 160 161 167 162 164 170 169 166 164 163 162 168 171 162 161 148 152 144 143 138 129 136 135 146 137 131 129 131 132 128 127 128 129 129 114 117 119 115 105 101 109 108
168 170 169 172 167 167 165 165 160 162 160 156 147 145 133 131 133 131 126 130 128 117 111 112 120 121 129 126 132 135 123 125 128 128 129 130 129 127 126 124 119 115 113 117 115
Wind_Direction
265 266 270 272 273 270 266 267 268 273 279 278 274 273 274 274 280 287 290 289 290 291 292 291 288 287 280 277 269 260 261 259 261 261 261 252 262 258 271 282 289 280 268 253 252
265 266 268 270 271 271 271 270 272 278 281 281 281 277 276 278 280 282 284 287 288 292 295 291 293 291 292 284 282 275 263 261 261 261 261 260 247 254 246 268 264 273 276 269 254
265 266 266 267 269 271 270 272 276 278 282 284 285 288 283 281 282 282 284 285 288 290 291 292 292 293 293 294 290 290 282 271 263 259 257 259 259 252 249 246 266 246 263 259 264
266 267 267 266 266 267 268 270 273 276 281 281 282 285 287 285 284 288 288 286 288 290 291 292 298 300 301 302 303 298 297 292 286 270 263 260 260 257 258 236 262 256 249 259 254
267 268 268 267 267 267 265 269 271 275 278 280 282 286 289 286 289 288 287 288 287 289 293 296 299 307 307 312 318 308 310 304 297 292 286 270 267 260 263 248 251 259 259 253 258
268 269 270 270 271 271 270 269 271 273 277 279 279 282 285 285 289 292 289 290 295 291 292 297 301 301 301 308 311 311 312 317 307 299 294 287 285 268 265 269 257 249 255 259 255
261 267 274 273 275 273 271 275 276 278 278 277 280 280 284 287 289 291 290 291 291 291 288 291 297 296 293 302 301 301 307 306 300 302 305 301 299 279 274 265 267 256 251 256 258
262 262 260 263 264 269 271 271 275 277 280 283 284 287 284 282 282 284 285 285 285 287 287 288 290 294 294 294 292 298 299 299 297 297 302 304 309 284 274 270 267 265 260 251 257
262 261 263 263 266 264 267 270 272 274 279 282 289 291 288 284 285 286 283 282 285 286 286 286 287 292 291 287 284 288 290 294 294 293 292 301 302 293 287 274 267 269 268 263 259
265 266 264 264 266 268 270 269 271 278 281 283 279 281 283 285 288 289 287 286 283 284 283 283 283 286 282 282 284 285 282 284 286 285 288 303 304 300 298 290 281 280 278 278 272
269 267 267 267 268 268 268 268 270 275 278 281 284 282 276 275 282 284 287 289 286 284 281 287 285 281 280 282 282 283 280 276 277 282 271 278 297 302 294 291 286 287 289 290 281
270 275 273 270 267 271 272 271 266 269 270 275 281 285 285 279 280 275 281 284 284 284 287 285 294 283 285 283 281 280 273 275 273 278 281 278 285 284 286 290 293 290 285 281 281
265 274 273 272 276 270 274 280 275 269 266 273 274 278 277 276 277 275 275 279 282 285 283 284 285 281 285 286 284 282 279 275 269 270 277 275 286 276 275 279 285 286 285 285 282
266 265 266 270 272 279 277 274 286 279 270 266 272 277 276 272 276 277 279 281 282 282 283 286 280 281 281 286 282 288 282 280 275 272 266 278 262 271 273 283 280 281 282 282 281
263 278 261 274 269 269 275 272 272 276 281 266 268 270 273 277 276 284 283 282 284 280 283 283 279 280 285 283 285 284 278 280 282 282 280 274 257 263 270 273 276 279 284 286 289
267 266 267 266 281 260 267 272 267 268 294 257 267 273 269 271 274 283 283 283 285 284 282 278 281 282 280 282 282 284 286 282 278 281 283 275 267 251 264 266 267 273 271 275 279
270 268 273 273 276 270 267 281 260 269 287 266 273 271 276 281 265 268 280 272 278 282 287 278 279 289 284 281 282 282 281 279 276 275 277 273 271 262 252 260 269 274 274 273 276
266 275 273 273 274 268 276 270 275 272 272 281 268 280 268 280 278 267 278 286 272 276 281 280 271 281 284 282 285 280 291 281 276 275 275 274 274 259 263 258 260 265 267 272 274
266 273 272 270 268 273 277 272 285 286 276 279 272 279 282 279 287 277 278 282 278 275 283 279 270 275 279 277 281 276 283 279 280 275 273 277 275 271 276 271 264 265 269 271 271
267 268 271 271 271 270 271 276 282 280 276 277 281 282 281 283 283 282 278 282 278 281 281 280 279 284 282 283 284 279 277 275 275 280 277 285 267 266 277 274 269 267 271 271 269
268 267 272 271 271 272 274 275 276 277 277 275 281 280 279 281 278 282 281 284 279 278 280 282 284 287 279 283 282 281 279 282 273 277 280 282 280 287 278 271 270 273 274 270 268
267 269 270 269 270 272 274 274 271 272 274 274 274 276 279 279 279 280 284 284 281 281 277 278 282 282 282 279 280 279 282 283 282 281 283 286 286 288 285 284 285 284 282 280 276
269 269 271 271 274 275 276 275 274 270 270 272 273 276 280 280 279 278 280 281 279 283 283 282 283 284 280 281 281 282 279 280 284 283 281 284 283 283 283 284 280 283 280 282 278
266 268 267 270 272 273 274 271 271 271 270 271 271 275 277 281 277 278 279 275 273 274 280 281 278 279 281 283 284 281 282 279 280 279 279 279 282 281 274 281 278 277 277 278 278
264 268 266 267 267 271 270 271 272 271 272 270 271 273 271 275 279 278 279 275 273 276 278 279 278 278 277 277 278 280 278 279 278 280 281 283 280 277 276 276 273 272 275 275 272
267 267 266 269 270 271 271 272 271 273 273 273 272 272 272 276 279 274 274 272 274 272 274 270 268 270 272 271 271 270 274 273 274 276 277 280 280 282 278 279 281 280 277 272 271
269 268 268 269 271 272 273 273 273 274 275 275 275 275 274 277 276 276 276 276 275 273 269 270 268 267 269 269 267 266 270 266 267 269 273 277 281 280 278 279 278 278 275 275 278
Height
10827 10827 10827 10827 10827 10827 10827 10826 10825 10825 10825 10824 10823 10823 10822 10821 10820 10820 10819 10817 10815 10814 10813 10812 10812 10811 10810 10810 10810 10810 10810 10810 10809 10808 10807 10808 10807 10807 10805 10804 10802 10801 10800 10799 10799
10821 10821 10822 10821 10821 10821 10822 10822 10821 10820 10820 10819 10818 10818 10816 10815 10814 10813 10812 10811 10810 10808 10808 10807 10806 10805 10804 10803 10803 10802 10803 10803 10803 10802 10802 10801 10801 10800 10800 10799 10798 10797 10796 10794 10794
10815 10815 10816 10815 10815 10815 10815 10815 10815 10814 10814 10813 10812 10811 10810 10808 10807 10807 10806 10805 10804 10802 10801 10800 10799 10798 10797 10795 10797 10795 10796 10796 10795 10795 10796 10794 10795 10795 10793 10794 10791 10792 10790 10790 10789
10810 10810 10810 10810 10808 10808 10808 10808 10808 10808 10808 10808 10807 10807 10805 10802 10800 10799 10799 10799 10798 10797 10795 10794 10794 10793 10790 10788 10790 10788 10788 10788 10788 10787 10788 10788 10787 10789 10786 10789 10786 10785 10785 10783 10784
10804 10804 10804 10803 10803 10802 10802 10802 10803 10803 10803 10803 10803 10803 10801 10797 10795 10794 10792 10791 10791 10792 10791 10790 10790 10790 10787 10786 10785 10782 10781 10781 10780 10778 10779 10779 10778 10781 10773 10781 10781 10780 10779 10779 10778
10798 10797 10798 10798 10798 10798 10797 10797 10796 10797 10798 10798 10798 10799 10797 10791 10790 10790 10788 10786 10786 10786 10786 10787 10786 10786 10783 10781 10782 10779 10778 10776 10772 10772 10772 10770 10770 10770 10764 10769 10771 10773 10773 10773 10772
10790 10791 10791 10791 10792 10790 10790 10790 10790 10790 10790 10791 10792 10793 10790 10785 10784 10784 10783 10782 10781 10780 10780 10781 10781 10780 10779 10777 10776 10775 10776 10772 10765 10766 10766 10764 10761 10757 10756 10761 10759 10763 10763 10763 10763
10782 10782 10781 10783 10783 10782 10781 10783 10782 10782 10783 10784 10786 10787 10784 10778 10778 10777 10777 10775 10775 10773 10772 10772 10773 10771 10770 10770 10769 10770 10770 10768 10757 10760 10761 10759 10753 10742 10748 10752 10749 10748 10749 10754 10753
10774 10774 10774 10773 10774 10772 10772 10775 10774 10773 10776 10777 10778 10779 10777 10772 10769 10769 10768 10766 10766 10764 10764 10764 10766 10765 10759 10760 10761 10762 10764 10763 10756 10753 10756 10753 10746 10736 10738 10742 10740 10736 10739 10741 10746
10763 10764 10763 10763 10764 10763 10762 10765 10767 10768 10767 10768 10771 10770 10769 10765 10761 10759 10758 10756 10756 10755 10753 10754 10759 10756 10742 10751 10755 10753 10756 10754 10751 10743 10748 10747 10741 10735 10730 10733 10730 10726 10727 10730 10734
10751 10752 10752 10753 10754 10754 10752 10753 10757 10760 10761 10758 10762 10761 10760 10757 10754 10747 10745 10745 10744 10745 10740 10747 10750 10743 10730 10741 10741 10743 10744 10745 10741 10734 10742 10743 10738 10728 10720 10720 10722 10719 10717 10719 10722
10737 10738 10738 10739 10740 10740 10739 10740 10744 10751 10757 10750 10750 10754 10751 10747 10748 10737 10732 10729 10732 10733 10733 10736 10743 10727 10726 10725 10728 10731 10731 10733 10733 10724 10728 10732 10734 10724 10714 10710 10706 10709 10706 10708 10710
10725 10724 10724 10725 10723 10724 10723 10725 10728 10735 10746 10747 10737 10744 10737 10733 10735 10729 10720 10720 10721 10724 10718 10726 10729 10718 10712 10714 10711 10717 10718 10718 10721 10715 10720 10721 10727 10716 10708 10704 10702 10692 10694 10693 10695
10711 10712 10711 10712 10709 10708 10707 10710 10710 10715 10731 10740 10728 10725 10721 10719 10724 10715 10711 10709 10712 10711 10707 10719 10708 10705 10705 10705 10689 10712 10694 10702 10706 10706 10712 10710 10720 10713 10701 10697 10691 10687 10679 10680 10682
10693 10694 10696 10694 10695 10693 10691 10691 10695 10694 10715 10719 10717 10711 10701 10700 10704 10705 10700 10697 10699 10695 10695 10704 10698 10691 10690 10688 10680 10697 10688 10686 10687 10691 10697 10701 10693 10702 10694 10692 10682 10678 10673 10669 10662
10674 10674 10675 10676 10673 10672 10670 10672 10672 10677 10697 10694 10696 10692 10693 10694 10692 10689 10684 10680 10678 10674 10679 10683 10678 10680 10677 10674 10667 10666 10673 10674 10671 10674 10686 10678 10675 10705 10684 10680 10673 10670 10663 10661 10657
10651 10651 10654 10655 10651 10648 10649 10648 10645 10662 10670 10675 10671 10673 10676 10676 10676 10673 10672 10672 10663 10654 10657 10659 10665 10662 10658 10658 10654 10649 10650 10650 10650 10655 10664 10661 10667 10684 10674 10665 10662 10658 10653 10651 10648
10625 10628 10631 10630 10629 10623 10621 10620 10629 10655 10645 10641 10642 10650 10654 10650 10654 10650 10650 10654 10646 10637 10638 10638 10649 10638 10643 10637 10634 10638 10625 10628 10611 10632 10642 10642 10659 10664 10656 10653 10648 10645 10641 10639 10635
10603 10602 10609 10605 10606 10600 10597 10596 10620 10620 10618 10614 10614 10622 10631 10627 10621 10624 10624 10630 10622 10613 10607 10606 10629 10627 10625 10615 10611 10617 10610 10602 10588 10604 10605 10639 10640 10647 10638 10631 10628 10629 10626 10623 10617
10574 10580 10588 10579 10578 10578 10572 10587 10599 10596 10586 10576 10581 10594 10606 10605 10591 10589 10596 10606 10596 10589 10583 10580 10574 10606 10595 10590 10595 10582 10585 10580 10574 10564 10571 10607 10607 10625 10617 10614 10614 10609 10605 10600 10597
10550 10549 10566 10551 10546 10547 10558 10568 10576 10576 10562 10554 10559 10557 10569 10571 10561 10561 10563 10580 10570 10569 10560 10551 10547 10585 10562 10573 10561 10553 10552 10554 10547 10542 10541 10547 10585 10595 10594 10595 10590 10584 10582 10578 10574
10522 10524 10540 10528 10520 10527 10538 10551 10549 10559 10545 10532 10531 10530 10531 10533 10533 10529 10533 10544 10548 10537 10536 10532 10515 10521 10534 10539 10536 10529 10530 10524 10514 10523 10511 10504 10520 10573 10565 10560 10558 10559 10554 10545 10548
10494 10495 10504 10497 10493 10499 10508 10505 10504 10524 10525 10508 10497 10498 10499 10504 10500 10514 10513 10527 10514 10504 10495 10489 10462 10465 10484 10500 10514 10499 10501 10496 10490 10482 10482 10478 10486 10542 10531 10531 10528 10526 10522 10518 10514
10461 10461 10468 10467 10471 10470 10471 10469 10470 10485 10490 10489 10468 10463 10465 10463 10475 10466 10483 10496 10492 10475 10464 10458 10443 10443 10436 10451 10467 10457 10467 10464 10455 10447 10460 10452 10469 10480 10494 10500 10498 10488 10483 10485 10486
10434 10430 10431 10434 10448 10440 10434 10436 10442 10442 10446 10452 10442 10436 10435 10422 10430 10436 10443 10448 10447 10452 10437 10415 10406 10410 10416 10419 10432 10426 10424 10431 10415 10422 10410 10431 10420 10436 10453 10459 10454 10454 10459 10451 10442
10397 10397 10395 10403 10401 10396 10404 10408 10394 10401 10393 10409 10399 10403 10393 10390 10383 10383 10390 10393 10399 10413 10399 10393 10376 10371 10365 10383 10386 10385 10390 10391 10399 10397 10381 10381 10382 10421 10407 10398 10405 10419 10424 10407 10402
10345 10349 10353 10365 10358 10353 10365 10351 10353 10349 10360 10350 10357 10349 10353 10352 10343 10342 10342 10346 10346 10356 10362 10364 10350 10345 10332 10345 10339 10328 10372 10371 10367 10371 10370 10353 10360 10364 10365 10365 10374 10375 10372 10360 10367